Location: Bakhuizen
(52.8696°N, 5.4575°E)
Time: 03:51:45
(UTC+00:00)

ERBS - Pass Details

Date: 11 May 2021
Orbit: 400 x 417 km, 57.0° (Epoch: 14 June)

Event Time Altitude Azimuth Distance (km) Brightness Sun altitude
Rises 20:00:01 0° 281° (W) 2,340 7.3 -5.3°
Reaches altitude 10° 20:02:11 10° 289° (WNW) 1,482 6.4 -5.6°
Maximum altitude 20:05:19 38° 0° (N) 647 3.6 -5.9°
Drops below altitude 10° 20:08:28 10° 71° (ENE) 1,492 4.8 -6.3°
Sets 20:10:39 0° 80° (E) 2,359 5.7 -6.5°
